www.pogodaiklimat.ru

Погода и климат >> Архив погоды >> Монголия >> Эрдэнэмандал


ПОГОДА в Эрдэнэмандале

  • Прогноз погоды в Эрдэнэмандале
  • Монитор погоды в Эрдэнэмандале

АРХИВ ПОГОДЫ в Эрдэнэмандале

Время (UTC), дата Ветер
(напр.,м/с)
 
Видим.   Явления Облачность Т
(С)
Тd
(С)
f
(%)
Тe
(С)
Тes
(С)
Комфортность P
(гПа)
Po
(гПа)
Тmin
(С)
Tmax
(С)
R
(мм)
R24
(мм)
S
(см)
18 13.09 ЮЗ 3 50 км 6/3 600 м
[Sc Ac lent]
+5.8 -2.1 57 +3 +3 1018.1 846.7
21 13.09 ЮЗ 3 50 км 3/0
[Ac lent]
+1.4 -4.0 67 -3 -3 1020.7 846.3
00 14.09 З 5 50 км 4/0
[Ac lent Ci]
+2.8 -4.3 60 -2 -2 1015.9 846.5 +0.2
03 14.09 З 9 50 км 9/5 1000 м
[Cu hum Ac cast Cs]
+12.0 -4.4 31 +9 +9 1013.1 845.9
06 14.09 СЗ 8 50 км 8/4 1000 м
[Cu med, cong Cs]
+13.5 -5.8 26 +11 +12 1010.9 844.9
09 14.09 СЗ 10 50 км 8/3 1000 м
[Cu med, cong Ac cast]
+13.5 -4.6 28 +11 +11 1010.6 844.6
12 14.09 С 3 50 км {метель} 3/0
[Ac cast]
+5.1 -1.0 65 +2 +2 1019.9 847.8 +15.4
15 14.09 З 2 50 км ясно +4.9 -3.4 55 +3 +3 1022.7 850.0
18 14.09 СЗ 4 50 км ясно +1.5 -4.7 63 -3 -3 1025.8 850.6
21 14.09 З 5 50 км ясно -0.1 -4.7 71 -6 -6 1027.1 850.8
00 15.09 ЮЗ 5 50 км 1/0
[Ci]
+1.9 -3.7 66 -3 -3 1026.5 851.4 -2.1
03 15.09 СЗ 5 50 км 4/4 1000 м
[Cu med, cong]
+11.3 -3.5 35 +9 +11 1019.7 851.0
06 15.09 С 8 50 км 6/6 1000 м
[Cu med, cong]
+13.4 -5.0 27 +11 +12 1016.3 849.3
09 15.09 С 7 50 км 4/4 1000 м
[Cu med, cong]
+15.4 -5.1 24 +14 +14 1013.5 848.0
12 15.09 С 4 50 км 3/0
[Ac lent]
+8.3 -4.2 41 +6 +6 1018.1 848.1 +16.0
15 15.09 ЮЗ 4 50 км 8/0
[Ac lent]
+5.7 -4.0 50 +2 +2 1021.2 849.2
18 15.09 ЮЗ 3 50 км 6/3 600 м
[Sc Ac lent]
+4.4 -4.2 54 +1 +1 1022.0 849.1
21 15.09 ЮЗ 3 50 км ясно +2.4 -4.3 61 -1 -1 1023.3 849.1
00 16.09 ЮЗ 3 50 км 1/0
[Ci]
+2.0 -4.4 63 -2 -1 1025.2 850.4 -0.4
03 16.09 С 7 50 км 6/3 1000 м
[Cu hum Ci]
+12.7 -3.4 32 +10 +12 1017.8 850.2
06 16.09 С 7 50 км 9/4 1000 м
[Cu med, cong Ac cast Cs]
+15.1 -4.2 26 +14 +14 1015.1 849.2
09 16.09 С 8 50 км 8/4 1000 м
[Cu med, cong Ci fib]
+15.3 -4.0 26 +14 +14 1014.6 848.9
12 16.09 С 2 50 км 3/0
[Ac lent]
+9.9 -3.4 39 +9 +9 1020.0 850.5 +16.3
15 16.09 З 4 50 км ясно +5.7 -3.4 52 +2 +2 1025.9 853.1
18 16.09 ЮЗ 3 50 км ясно +3.2 -2.9 64 -0 -0 1029.5 854.7
21 16.09 ЮЗ 4 50 км ясно +1.1 -4.1 68 -4 -4 1032.3 855.8
00 17.09 ЮЗ 4 50 км ясно +1.7 -3.9 66 -3 -3 1033.6 857.2 +0.1
03 17.09 ЮЗ 3 50 км ясно +11.2 -2.3 39 +10 +16 1027.4 857.4
06 17.09 ЮЗ 5 50 км 1/0
[Ci]
+16.2 -2.8 27 +15 +20 1022.3 855.8
09 17.09 Ю 3 50 км 3/1 1000 м
[Cu hum Ci]
+18.0 -4.2 22 +18 +20 1019.0 854.0
12 17.09 ЮВ 4 50 км 4/0
[Ac lent Ci]
+11.5 -0.9 42 +10 +10 1023.0 853.9 +19.4
15 17.09 З 1 50 км 8/0
[Ac lent Cs]
+7.7 -2.2 49 +7 +7 1026.2 854.5
18 17.09 ЮЗ 3 50 км 8/0
[Ac lent Cc]
+9.7 -3.4 40 +8 +8 1024.5 854.2
21 17.09 ЮЗ 4 50 км 9/0
[Ac As Cc]
+9.4 -4.8 36 +7 +7 1024.5 854.0
00 18.09 ЮЗ 6 50 км 9/9 600 м
[Sc]
+10.6 -5.3 32 +8 +8 1024.1 854.3 +7.3
03 18.09 ЮЗ 3 50 км 9/3 1000 м
[Cu hum Ac As Cs]
+14.8 -4.3 26 +14 +17 1021.8 854.7
06 18.09 З 6 50 км 9/4 1000 м
[Cu med, cong Ac As]
+19.0 -2.6 23 +19 +19 1017.0 852.8
09 18.09 С 6 50 км 8/3 1000 м
[Cu med, cong Cs]
+19.1 -1.5 25 +19 +19 1015.6 851.7
12 18.09 СЗ 4 50 км 8/5 600 м
[Sc Ac lent]
+13.1 -0.5 39 +12 +12 1020.4 852.6 +20.5
15 18.09 ЮЗ 3 50 км 8/0
[Ac lent Ci fib]
+11.2 -0.6 44 +10 +10 1022.8 853.6
18 18.09 ЮЗ 2 50 км 4/0
[Ac lent]
+7.4 +1.5 66 +6 +6 1025.6 853.8
21 18.09 ЮЗ 2 50 км 3/0
[Ac cast]
+3.8 -0.2 75 +1 +1 1028.5 854.2
00 19.09 ЮЗ 2 50 км 4/0
[Ac trans Ci fib]
+3.2 +0.1 80 0 +1 1030.0 855.1 +2.7
03 19.09 С 7 50 км 1/1 1000 м
[Cu hum]
+15.6 -1.2 32 +14 +16 1021.8 855.1
06 19.09 С 9 50 км 4/4 1000 м
[Cu med, cong]
+17.5 -2.0 26 +16 +17 1019.3 854.0
09 19.09 С 6 50 км 3/3 1000 м
[Cu hum]
+18.0 -1.9 26 +17 +18 1018.4 853.5
12 19.09 СЗ 3 50 км 3/0
[Ac lent]
+11.8 -1.1 41 +11 +11 1023.4 854.4 +19.0
15 19.09 ЮЗ 4 50 км 1/0
[Ac lent]
+7.1 -0.4 59 +4 +4 1028.2 855.8
18 19.09 ЮЗ 4 50 км ясно +5.4 -1.8 60 +2 +2 1029.6 856.0
21 19.09 ЮЗ 4 50 км ясно +3.7 -2.2 65 -0 -0 1030.5 855.8
00 20.09 ЮЗ 3 50 км ясно +3.6 -2.1 66 0 0 1031.4 856.5 +2.2
03 20.09 Ю 2 50 км 3/0
[Ci]
+13.9 -1.3 35 +14 +20 1024.2 856.2
06 20.09 Ю 2 50 км 6/3 1000 м
[Cu med, cong Ci]
+20.3 -1.3 23 +21 +27 комфорт 1017.8 854.2
09 20.09 Ю 2 50 км 8/4 1000 м
[Cu med, cong Ac lent Cs]
+20.7 -2.5 21 +21 +22 комфорт 1016.0 852.9
12 20.09 ЮВ 5 50 км 3/0
[Ac lent]
+14.7 -0.3 36 +13 +13 1019.4 852.6 +21.3
15 20.09 З 4 50 км ясно +7.0 -1.2 56 +4 +4 1025.9 853.8

 

Местоположение метеостанции Эрдэнэмандал (Монголия): широта 48.53 долгота 101.38 высота над уровнем моря 1509 м.

В архиве по умолчанию представлена погода в Эрдэнэмандале за последнюю неделю. Архивные данные за месяц целиком и за предыдущие месяцы, начиная с января 2011 года, Вы можете получить, выбрав интересующий диапазон дат из раскрывающегося списка и нажав кнопку "Ввод!".


*Определитесь, кто Вы:
робот инопланетянин человек

Внимание! Время в таблицах - всемирное. Для получения местного времени необходимо прибавить поправку, которая равна 8 ч.

Смотрите также архив погоды в соседних городах и на ближайших метеорологических станциях:

Погода в Цэцэрлэге (Монголия) (120 км)
Погода ву Тариалане (Монголия) (124 км)
Погода в Хутаге (Монголия) (135 км)
Погода в Тариате (Монголия) (144 км)
Погода в Мурэне (Монголия) (151 км)
Погода в Булгане (Монголия) (162 км)
Погода в Хужирте (Монголия) (209 км)
Погода в Галууте (Монголия) (224 км)
Погода в Хатгале (Монголия) (229 км)
Погода в Тосонцэнгэле (Монголия) (235 км)

Пояснения к столбцам:

Ветер - указаны скорость ветра в м/с - средняя за 10 мин, порывы в срок и между сроками (в фигурных скобках) и направление, откуда дует ветер: С - северный, СВ - северо-восточный, В - восточный, ЮВ - юго-восточный, Ю - южный, ЮЗ - юго-западный, З - западный, СЗ - северо-западный.
Видимость - горизонтальная дальность видимости в метрах или километрах. При видимости от 1 до 10 км при отсутствии осадков обычно наблюдается дымка, при ухудшении видимости до 1 км и менее - туман. В сухую погоду видимость может ухудшаться дымом, пылью или мглою.
Явления - указаны атмосферные явления, наблюдавшиеся в срок или в последний час перед сроком; фигурными скобками обозначены явления, наблюдавшиеся между сроками (за 1-3 часа до срока); квадратными скобками обозначены град или гололедные отложения с указанием их диаметра в мм.
Облачность - указаны через наклонную черту общая и нижняя облачность в баллах и высота нижней границы облаков в метрах; квадратными скобками обозначены формы облаков: Ci - перистые, Cs - перисто-слоистые, Cc - перисто-кучевые, Ac - высококучевые, As - высокослоистые, Sc - слоисто-кучевые, Ns - слоисто-дождевые, Cu - кучевые, Cb - кучево-дождевые. Подробнее классификацию облаков см. в Атласе облаков (PDF).
T - Температура воздуха - температура, измеренная на высоте 2 м над землей.
Td - Температура точки росы - температура, при понижении до которой содержащийся в воздухе водяной пар достигнет насыщения.
f - Относительная влажность воздуха - влажноcть воздуха, измеренная на высоте 2 м над землей.
Te - Эффективная температура - температура, которую ощущает одетый по сезону человек в тени. Характеристика душности погоды. При расчете учитывается влияние влажности воздуха и скорости ветра на теплоощущения человека.
Tes - Эффективная температура на солнце - температура, которую ощущает человек, с поправкой на солнечный нагрев. Характеристика знойности погоды. Зависит от высоты солнца над горизонтом, облачности и скорости ветра. Ночью, в пасмурную погоду, а также при ветре 12 м/с и более поправка равна нулю.
P - Атмосферное давление - приведенное к уровню моря атмосферное давление.
Po - Атмосферное давление - измеренное на уровне метеостанции атмосферное давление.
Tmin - Минимальная температура - минимум температуры воздуха на высоте 2 м над землей.
Tmax - Максимальная температура - максимум температуры воздуха на высоте 2 м над землей.
R - Количество осадков - Количество выпавших осадков за период времени, мм. При наведении курсора мыши на число - период времени, за который выпало указанное количество осадков.
R24 - Количество осадков - Количество выпавших осадков за 24 часа, мм.
S - Снежный покров - Высота снежного покрова, см. При наведении курсора мыши на число - состояние снежного покрова и степень покрытия местности в баллах.